Location: Taupo
(38.6830°S, 176.0830°E)
Time: 01:06:56
(UTC+12:00)

Cosmos 1633 - Pass Details

Date: 24 January 2019
Orbit: 467 x 483 km, 82.5° (Epoch: 19 April)

Event Time Altitude Azimuth Distance (km) Brightness Sun altitude
Rises 21:40:41 0° 168° (SSE) 2,548 6.6 -11.4°
Reaches altitude 10° 21:43:28 10° 145° (SE) 1,662 5.3 -11.9°
Maximum altitude 21:45:44 16° 106° (ESE) 1,343 4.5 -12.2°
Enters shadow 21:46:37 15° 89° (E) 1,393 4.4 -12.4°
